{"data":{"norad_id":69095,"epoch":"2026-05-24T22:17:33.506592Z","epoch_age_seconds":95384,"freshness":"FRESH","line1":"1 69095U 26105A   26144.92886003  .00203121 -10055-5  50134-3 0  9998","line2":"2 69095  88.9785 197.4206 0484038  26.7778 335.7584 15.08859108  1639","mean_motion":15.08859108,"eccentricity":0.0484038,"inclination_deg":88.9785,"raan_deg":197.4206,"arg_perigee_deg":26.7778,"mean_anomaly_deg":335.7584,"bstar":0.00050134,"rev_number":163,"period_min":95.436346068701,"perigee_km":204.83611231628,"apogee_km":874.53385582121,"semimajor_km":6917.8219840687,"source":"CELESTRAK","updated_at":"2026-05-25T13:38:09.292918Z"}}